Regional Weather Roundup
Issued by NWS

Home | Current Version | Previous Version | Text Only | Print | Product List | Glossary On
Versions: 1 2 3 4 5 6 7 8 9 10 11 12 13 14 15 16 17 18 19 20 21 22 23 24 25 26 27 28 29 30 31 32 33 34 35 36 37 38 39 40 41 42 43 44 45 46 47 48 49 50
000
ASUS43 KMPX 010810
RWRMN
WEATHER ROUNDUP FOR MINNESOTA
NATIONAL WEATHER SERVICE TWIN CITIES/CHANHASSEN MN
200 AM CST MON MAR 01 2021


NOTE: "FAIR" INDICATES FEW OR NO CLOUDS BELOW 12,000 FEET WITH NO
SIGNIFICANT WEATHER AND/OR OBSTRUCTIONS TO VISIBILITY. N/A MEANS
CURRENT SKY AND/OR WEATHER CONDITIONS ARE NOT AVAILABLE.

MNZ060>063-068>070-010900-
   Twin Cities Metro

CITY           SKY/WX    TMP DP  RH WIND       PRES   REMARKS
TWIN CITIES    CLOUDY    21  12  68 NW7       30.12R WCI  12
ST PAUL        CLOUDY    22  11  62 NW8       30.13R WCI  12
CRYSTAL        LGT SNOW  20  12  71 NW7       30.11R WCI  11
BLAINE         LGT SNOW  21  16  79 NW6       30.11R WCI  14
LAKEVILLE      LGT SNOW  19  14  79 NW7       30.10S WCI  10
EDEN PRAIRIE   CLOUDY    21  13  71 N6        30.10R WCI  13
SOUTH ST PAUL  MOCLDY    22  13  69 NW8       30.12R WCI  12
LAKE ELMO      LGT SNOW  19  12  73 MISG      30.12R
$$
MNZ001>005-007-008-013>017-022>024-027-028-010900-
   Northwest Minnesota

CITY           SKY/WX    TMP DP  RH WIND       PRES   REMARKS
BEMIDJI        CLEAR      4  -1  77 N9        30.16R WCI -10
HALLOCK        CLEAR     -4 -11  71 CALM      30.31R
ROSEAU         CLEAR      0 -24  32 N8        30.25R WCI -15
WARROAD        CLEAR     -6 -17  59 NW5       30.24R WCI -17
THIEF RVR FALL CLEAR      1  -6  72 N9        30.25R WCI -14
CROOKSTON      CLEAR      3  -4  72 N9        30.28R WCI -11
FOSSTON        CLEAR      1  -4  78 N8        30.20R WCI -12
DETROIT LAKES  CLOUDY     7   1  78 N6        30.18R WCI  -3
MOORHEAD       MOCLDY    12  -4  48 N18       30.24R WCI  -5
PARK RAPIDS    CLOUDY     9   1  70 N10       30.14R WCI  -5
MAHNOMEN       FAIR       6   0  75 N12       30.20R WCI -10
$$
MNZ006-009>011-018-025>026-010900-
   North Central Minnesota

CITY           SKY/WX    TMP DP  RH WIND       PRES   REMARKS
BAUDETTE       CLEAR     -5 -18  53 NW9       30.20R WCI -22
FLAG ISLAND    CLEAR     -8 -18  59 N12       30.22R WCI -27
INTL FALLS     CLEAR     -2 -14  56 NW9       30.15R WCI -18
WASKISH        CLEAR      0  -9  65 NW5       30.19R WCI -10
BIG FORK       CLEAR      3  -4  72 NW5       30.18R WCI  -6
LONGVILLE      MOCLDY    10   1  67 NW5       30.12R WCI   2
GRAND RAPIDS   PTCLDY     7  -1  70 N12       30.13R WCI  -8
CRANE LAKE     CLEAR      1 -11  55 N9G17     30.15R WCI -14
ORR            CLEAR      1  -9  60 NW5       30.08  WCI  -8
COOK           CLEAR      3  -6  66 NW6       30.09R WCI  -8
WALKER         MOSUNNY    7  -1  72 N8        30.16R WCI  -6
$$
MNZ012-019>021-037-010900-
   Northeast Minnesota

CITY           SKY/WX    TMP DP  RH WIND       PRES   REMARKS
DULUTH         MOCLDY    10  -2  58 NW9       30.05R WCI  -3
ELY            CLEAR      3  -8  60 NW8G20    30.05R WCI -10
HIBBING        PTCLDY     5  -3  69 NW16G23   30.09R WCI -14
EVELETH        PTCLDY     6  -3  66 NW10G17   30.08R WCI  -9
DULUTH HARBOR  PTCLDY    16   1  53 NW10G17   30.13R WCI   3
TWO HARBORS    PTCLDY     9  -8  47 W9        30.06R WCI  -5
SILVER BAY     PTCLDY     7  -8  51 NW3       30.05R
GRAND MARAIS     N/A      9  -5  53 VRB3      30.05R
G MARAIS ARPRT PTCLDY     1  -9  60 NW10G20   29.91R WCI -14
$$
MNZ029>031-032-039>041-046>048-054>057-064-010900-
   West Central Minnesota

CITY           SKY/WX    TMP DP  RH WIND       PRES   REMARKS
FERGUS FALLS   LGT SNOW  10   5  79 N12G20    30.15R WCI  -4
WHEATON        FLURRIES  14  10  85 N14       30.21R WCI  -1
MORRIS         LGT SNOW  16  10  79 N10       30.16R WCI   3
ALEXANDRIA     LGT SNOW  13   9  84 N10       30.14R FOG     WCI   0
ELBOW LAKE     LGT SNOW  13  10  89 N10       30.17R WCI   0
WADENA         LGT SNOW  10   7  85 N8        30.14R WCI  -1
GLENWOOD       LGT SNOW  16  12  86 N9        30.13R WCI   4
APPLETON       LGT SNOW  19  14  79 N16       30.15R WCI   5
BENSON         FLURRIES  18  12  79 NE9       30.15R WCI   6
ORTONVILLE     FLURRIES  18  14  86 N16       30.16R WCI   3
MADISON        CLOUDY    21  16  79 N17G24    30.16R WCI   7
WILLMAR        LGT SNOW  19  16  86 N7        30.15R WCI  10
$$
MNZ033>034-036-042>043-049>051-058-059-010900-
   Central Minnesota

CITY           SKY/WX    TMP DP  RH WIND       PRES   REMARKS
ST CLOUD       LGT SNOW  15  12  88 N13G20    30.13R VSB 1   WCI   1
SAUK CENTRE    LGT SNOW  14  11  87 N10       30.13R WCI   1
PAYNESVILLE    LGT SNOW  18  16  93 N6        30.13R WCI   9
AITKIN         MOCLDY    12   3  67 NW9       30.12R WCI   0
PINE RIVER     CLOUDY    12   7  79 N9        30.17R WCI   0
BRAINERD       LGT SNOW  14   9  80 NW9       30.13R WCI   2
STAPLES        LGT SNOW  14  10  85 NW3       30.14R
LONG PRAIRIE   LGT SNOW  14  10  85 N12       30.13R WCI   0
LITTLE FALLS   LGT SNOW  14   9  79 N3        30.15R
CAMP RIPLEY    LGT SNOW  13  10  84 N8        30.15R WCI   2
LITCHFIELD     LGT SNOW  19  18  93 N7        30.12R WCI  10
BUFFALO        LGT SNOW  19  14  79 MISG      30.13R
MAPLE LAKE     LGT SNOW  19  16  88 N8        30.13R WCI   9
HUTCHINSON     LGT SNOW  21  18  90 N3        30.12R
$$
MNZ037-044-045-052-053-010900-
   East Central Minnesota

CITY           SKY/WX    TMP DP  RH WIND       PRES   REMARKS
PRINCETON      LGT SNOW  18  12  79 N6        30.13R WCI   9
MORA           FLURRIES  18   7  62 N9        30.14R WCI   6
CAMBRIDGE      LGT SNOW  18  10  73 NW7       30.14R WCI   8
RUSH CITY      CLOUDY    17   6  62 N6        30.11R WCI   8
MOOSE LAKE     CLOUDY    14   3  62 NW7       30.09R WCI   4
HINCKLEY       CLOUDY    18   5  57 CALM      30.10R
CLOQUET        PTCLDY    10   0  61 NW8       30.06R WCI  -1
MCGREGOR       CLOUDY    14   3  62 NW13G18   30.11R WCI   0
$$
MNZ071>073-080-081-089-090-097-098-010900-
   Southwest Minnesota

CITY           SKY/WX    TMP DP  RH WIND       PRES   REMARKS
MONTEVIDEO     CLOUDY    19  12  73 NE16      30.13R WCI   5
GRANITE FALLS  MOCLDY    20  16  86 N9        30.13R WCI   9
CANBY          CLOUDY    21  16  79 N12G21    30.14R WCI   9
MARSHALL       CLOUDY    21  17  84 N7        30.10R WCI  12
REDWOOD FALLS  CLOUDY    20  15  81 N5        30.09R WCI  13
OLIVIA         LGT SNOW  19  18  93 N7        30.11R WCI  10
PIPESTONE      CLOUDY    21  18  86 SW8       30.03S WCI  12
WINDOM         PTCLDY    25  19  80 SW7       30.05S WCI  17
WORTHINGTON    CLOUDY    23  18  81 SW15      30.05S WCI  10
JACKSON        CLOUDY    23  19  86 S5        30.08S WCI  17
TRACY          MOCLDY    23  16  74 SW5       30.05R WCI  17
SLAYTON        CLOUDY    23  18  81 SW20      30.04S WCI   8
$$
MNZ065>067-074>077-082>085-091>093-010900-
   South Central Minnesota

CITY           SKY/WX    TMP DP  RH WIND       PRES   REMARKS
MANKATO        CLOUDY    21  19  92 CALM      30.10S
NEW ULM        CLOUDY    23  18  80 CALM      30.09R
ST JAMES       CLOUDY    25  19  80 SW6       30.07S WCI  18
FAIRMONT       CLOUDY    22  18  85 SW7       30.09F WCI  13
GLENCOE        LGT SNOW  20  16  83 N3        30.10R
FARIBAULT        N/A     19  18  93 CALM      30.10S
OWATONNA       PTCLDY    19  16  86 CALM      30.09R
WASECA         PTCLDY    19  18  93 W6        30.11R WCI  11
ALBERT LEA     PTCLDY    19  18  93 W5        30.09R WCI  13
$$
MNZ078>079-086>088-094>096-010900-
   Southeast Minnesota

CITY           SKY/WX    TMP DP  RH WIND       PRES   REMARKS
ROCHESTER      CLOUDY    19  14  81 W10       30.08R WCI   7
RED WING       CLOUDY    21  14  73 W6        30.11R WCI  14
STANTON        CLOUDY    21  16  81 NW6       30.10R WCI  14
DODGE CENTER   PTCLDY    19  16  86 W8        30.08R WCI   9
WINONA         MOCLDY    23  16  74 NW8       30.12R WCI  14
PRESTON        PTCLDY    17  13  84 NW6       30.08R WCI   9
$$
ABBREVIATIONS USED IN REMARKS
   TC - TEMPERATURES IN CELSIUS
  WCI - WIND CHILL INDEX
   HX - HEAT INDEX
  VSB - VISIBILITY
$$



USA.gov is the U.S. government's official web portal to all federal, state and local government web resources and services.